Current Conditions
Scattered
Clouds



Pressure
1023.92 (mb) - 30.24 (inHG)
Visibility

10.0 (km) - 6.2 (miles)
Temperature
8  °C
Temperature
0  °C
Dewpoint
57  %
 Humidity
Wind Speed
2.7  m/s
6  mph
10  km/h
5  kts
Wind Direction
N
45°
E
90°
135°
S
180°
225°
W
270°
315°
 210°

South South
West
Airport Data
ENAL
Ă…lesund Airport, Vigra
Metar :ENAL 291350Z 21005KT 9999 SCT045 08/00 Q1024
Tue 29th November 14:50 pm
Raw Metar Info
Raw METAR is the most common format in the world for the transmission of observational weather data. It is highly standardized through the International Civil Aviation Organization (ICAO), which allows it to be understood throughout most of the world.
API Info
Data Provided by
https://www.checkwx.com/weather/ENAL

Aviation Weather providing METAR, TAF, AIRMET, SIGMET and OUTLOOK Weather Reports
© Info
CSS/SVG/PHP scripts were developed by weather34.com for use in the weather34 template © 2015-2022

Guide Info provided by Metar-Wikipedia